User: anonymous   Login
Location: Peebles
(55.6412°N, 3.1714°W)
Time: 00:12:21
(UTC+00:00)
Language:

Cosmos 1980 Rocket - Orbit

View from above orbital plane
View from above orbital plane
View from above satellite
View from above satellite

Ground track
Ground track

The orbit data is extracted from the following two-line orbital elements,

1 19650U 88102B   21331.32948129  .00000130  00000-0  90439-4 0  9991
2 19650  70.9987 199.8823 0016137 235.6418 124.3179 14.15810540705592
Epoch (UTC): 27 November 2021 07:54:27
Eccentricity: 0.0016137
inclination: 70.9987°
perigee height: 828 km
apogee height: 851 km
right ascension of ascending node: 199.8823°
argument of perigee: 235.6418°
revolutions per day: 14.15810540
mean anomaly at epoch: 124.3179°
orbit number at epoch: 70559

The dashed part of the orbit path shows where the satellite is in the earth's shadow,  

DLR